BTV141 WADD-WAAA

Flight info

Callsign BTV141
Flight time 0h 57m
Altitude 35000
Route PEDET W41 LIPOT
Aircraft A319/M-SDE3FGHIRWY/LB1

Departure

Time 2026-04-22 13:11
Airport Denpasar I Gusti Ngurah Rai International Airport (WADD)

Arrival

Time 2026-04-22 14:09
Airport Sultan Hasanuddin International Airport (WAAA)
Time Latitude Longitude Altitude Speed Heading
2026-04-22 12:43 -8.74566 115.16203 22 ft 0 kts 358°
2026-04-22 13:00 -8.74579 115.16204 22 ft 2 kts 357°
2026-04-22 13:00 -8.74594 115.16205 22 ft 2 kts 358°
2026-04-22 13:00 -8.74609 115.16206 22 ft 2 kts 357°
2026-04-22 13:01 -8.74624 115.16206 22 ft 2 kts 358°
2026-04-22 13:01 -8.74640 115.16206 22 ft 2 kts 358°
2026-04-22 13:01 -8.74653 115.16207 22 ft 0 kts 358°
2026-04-22 13:01 -8.74665 115.16209 22 ft 2 kts 341°
2026-04-22 13:02 -8.74678 115.16215 22 ft 2 kts 320°
2026-04-22 13:02 -8.74689 115.16228 22 ft 2 kts 298°
2026-04-22 13:02 -8.74694 115.16243 22 ft 2 kts 276°
2026-04-22 13:02 -8.74694 115.16251 22 ft 1 kts 264°
2026-04-22 13:03 -8.74694 115.16254 22 ft 0 kts 266°
2026-04-22 13:05 -8.74694 115.16252 22 ft 2 kts 266°
2026-04-22 13:05 -8.74698 115.16193 22 ft 13 kts 266°
2026-04-22 13:05 -8.74700 115.16081 22 ft 16 kts 268°
2026-04-22 13:05 -8.74706 115.15962 22 ft 17 kts 267°
2026-04-22 13:06 -8.74711 115.15837 22 ft 17 kts 268°
2026-04-22 13:06 -8.74715 115.15725 22 ft 17 kts 268°
2026-04-22 13:06 -8.74720 115.15600 22 ft 13 kts 268°
2026-04-22 13:06 -8.74724 115.15501 22 ft 13 kts 268°
2026-04-22 13:07 -8.74727 115.15445 22 ft 6 kts 264°
2026-04-22 13:07 -8.74748 115.15397 22 ft 8 kts 219°
2026-04-22 13:07 -8.74783 115.15386 22 ft 0 kts 177°
2026-04-22 13:07 -8.74785 115.15386 22 ft 0 kts 174°
2026-04-22 13:08 -8.74799 115.15388 22 ft 0 kts 177°
2026-04-22 13:09 -8.74817 115.15389 22 ft 7 kts 177°
2026-04-22 13:09 -8.74869 115.15391 22 ft 6 kts 177°
2026-04-22 13:09 -8.74894 115.15404 22 ft 4 kts 107°
2026-04-22 13:09 -8.74895 115.15418 22 ft 0 kts 89°
2026-04-22 13:10 -8.74894 115.15438 22 ft 14 kts 88°
2026-04-22 13:11 -8.74878 115.15816 23 ft 95 kts 87°
2026-04-22 13:11 -8.74846 115.16639 29 ft 158 kts 88°
2026-04-22 13:11 -8.74809 115.17509 502 ft 165 kts 88°
2026-04-22 13:11 -8.74762 115.18671 1388 ft 166 kts 88°
2026-04-22 13:12 -8.74718 115.19824 2179 ft 165 kts 88°
2026-04-22 13:12 -8.74671 115.21072 2664 ft 182 kts 88°
2026-04-22 13:12 -8.74617 115.22439 3124 ft 202 kts 88°
2026-04-22 13:12 -8.74557 115.23962 3624 ft 224 kts 88°
2026-04-22 13:13 -8.74490 115.25628 4211 ft 242 kts 88°
2026-04-22 13:13 -8.74418 115.27412 4798 ft 261 kts 88°
2026-04-22 13:13 -8.74342 115.29312 5560 ft 272 kts 88°
2026-04-22 13:13 -8.74263 115.31242 6506 ft 275 kts 88°
2026-04-22 13:14 -8.74184 115.33189 7419 ft 278 kts 88°
2026-04-22 13:14 -8.74102 115.35171 8253 ft 282 kts 88°
2026-04-22 13:14 -8.74020 115.37176 8799 ft 284 kts 88°
2026-04-22 13:14 -8.73937 115.39190 9068 ft 285 kts 88°
2026-04-22 13:15 -8.73854 115.41193 9093 ft 285 kts 88°
2026-04-22 13:15 -8.73694 115.43189 9119 ft 289 kts 76°
2026-04-22 13:15 -8.72829 115.44834 9482 ft 297 kts 47°
2026-04-22 13:15 -8.71345 115.46262 10489 ft 292 kts 42°
2026-04-22 13:16 -8.69768 115.47683 11101 ft 303 kts 42°
2026-04-22 13:16 -8.68147 115.49176 11447 ft 321 kts 43°
2026-04-22 13:16 -8.66454 115.50777 11765 ft 339 kts 43°
2026-04-22 13:16 -8.64679 115.52488 12195 ft 352 kts 44°
2026-04-22 13:17 -8.62885 115.54237 12893 ft 356 kts 44°
2026-04-22 13:17 -8.61083 115.56003 13615 ft 359 kts 44°
2026-04-22 13:17 -8.59265 115.57790 14294 ft 363 kts 44°
2026-04-22 13:17 -8.57434 115.59595 14953 ft 366 kts 44°
2026-04-22 13:18 -8.55589 115.61414 15596 ft 370 kts 44°
2026-04-22 13:18 -8.53716 115.63263 16225 ft 373 kts 44°
2026-04-22 13:18 -8.51872 115.65083 16824 ft 377 kts 44°
2026-04-22 13:18 -8.49934 115.67006 17434 ft 380 kts 44°
2026-04-22 13:19 -8.48089 115.68841 17998 ft 383 kts 44°
2026-04-22 13:19 -8.46189 115.70726 18561 ft 386 kts 44°
2026-04-22 13:19 -8.44220 115.72676 19127 ft 390 kts 44°
2026-04-22 13:19 -8.42252 115.74622 19676 ft 393 kts 44°
2026-04-22 13:20 -8.40275 115.76575 20210 ft 396 kts 44°
2026-04-22 13:20 -8.38273 115.78552 20731 ft 399 kts 44°
2026-04-22 13:20 -8.36256 115.80542 21237 ft 402 kts 44°
2026-04-22 13:20 -8.34233 115.82537 21727 ft 405 kts 44°
2026-04-22 13:21 -8.32179 115.84561 22207 ft 408 kts 44°
2026-04-22 13:21 -8.30124 115.86588 22672 ft 411 kts 44°
2026-04-22 13:21 -8.28056 115.88626 23127 ft 414 kts 44°
2026-04-22 13:21 -8.25976 115.90676 23567 ft 417 kts 44°
2026-04-22 13:22 -8.23869 115.92752 24000 ft 420 kts 44°
2026-04-22 13:22 -8.21745 115.94843 24424 ft 422 kts 44°
2026-04-22 13:22 -8.19629 115.96928 24834 ft 425 kts 44°
2026-04-22 13:22 -8.17469 115.99056 25240 ft 428 kts 44°
2026-04-22 13:23 -8.15416 116.01077 25617 ft 430 kts 44°
2026-04-22 13:23 -8.13225 116.03234 26009 ft 433 kts 44°
2026-04-22 13:23 -8.11043 116.05382 26390 ft 435 kts 44°
2026-04-22 13:23 -8.08847 116.07543 26764 ft 438 kts 44°
2026-04-22 13:24 -8.06623 116.09731 27133 ft 440 kts 44°
2026-04-22 13:24 -8.04565 116.11755 27470 ft 442 kts 44°
2026-04-22 13:24 -8.02306 116.13978 27828 ft 445 kts 44°
2026-04-22 13:24 -8.00043 116.16203 28176 ft 447 kts 44°
2026-04-22 13:25 -7.97775 116.18434 28518 ft 450 kts 44°
2026-04-22 13:25 -7.95507 116.20664 28849 ft 452 kts 44°
2026-04-22 13:25 -7.93216 116.22916 29170 ft 454 kts 44°
2026-04-22 13:25 -7.90936 116.25156 29569 ft 454 kts 44°
2026-04-22 13:26 -7.88643 116.27406 30022 ft 452 kts 44°
2026-04-22 13:26 -7.86366 116.29629 30456 ft 451 kts 44°
2026-04-22 13:26 -7.84086 116.31855 30866 ft 450 kts 44°
2026-04-22 13:26 -7.81835 116.34058 31258 ft 449 kts 44°
2026-04-22 13:27 -7.79560 116.36288 31649 ft 449 kts 44°
2026-04-22 13:27 -7.77326 116.38480 32027 ft 448 kts 44°
2026-04-22 13:27 -7.75050 116.40713 32406 ft 447 kts 44°
2026-04-22 13:27 -7.72781 116.42940 32777 ft 446 kts 44°
2026-04-22 13:28 -7.70548 116.45133 33133 ft 446 kts 44°
2026-04-22 13:28 -7.68290 116.47349 33459 ft 446 kts 44°
2026-04-22 13:28 -7.66051 116.49547 33731 ft 447 kts 44°
2026-04-22 13:28 -7.63812 116.51745 33981 ft 448 kts 44°
2026-04-22 13:29 -7.61529 116.53985 34232 ft 449 kts 44°
2026-04-22 13:29 -7.59264 116.56207 34477 ft 450 kts 44°
2026-04-22 13:29 -7.57008 116.58421 34713 ft 451 kts 44°
2026-04-22 13:29 -7.54702 116.60683 34929 ft 452 kts 44°
2026-04-22 13:30 -7.52425 116.62929 34970 ft 454 kts 45°
2026-04-22 13:30 -7.48295 116.67548 34981 ft 454 kts 50°
2026-04-22 13:31 -7.44213 116.72458 34982 ft 454 kts 50°
2026-04-22 13:31 -7.40090 116.77405 34983 ft 454 kts 50°
2026-04-22 13:32 -7.36237 116.82008 34983 ft 454 kts 50°
2026-04-22 13:32 -7.32087 116.86958 34983 ft 454 kts 50°
2026-04-22 13:33 -7.27942 116.91900 34983 ft 454 kts 50°
2026-04-22 13:33 -7.23819 116.96812 34983 ft 454 kts 50°
2026-04-22 13:34 -7.19711 117.01706 34983 ft 454 kts 50°
2026-04-22 13:34 -7.15615 117.06582 34983 ft 454 kts 50°
2026-04-22 13:35 -7.11496 117.11485 34983 ft 454 kts 50°
2026-04-22 13:35 -7.07589 117.16135 34983 ft 454 kts 50°
2026-04-22 13:36 -7.03474 117.21030 34983 ft 454 kts 50°
2026-04-22 13:36 -6.99330 117.25957 34983 ft 454 kts 50°
2026-04-22 13:37 -6.95216 117.30848 34983 ft 454 kts 50°
2026-04-22 13:37 -6.91067 117.35779 34983 ft 454 kts 50°
2026-04-22 13:38 -6.87033 117.40551 34983 ft 454 kts 49°
2026-04-22 13:38 -6.80823 117.47893 34983 ft 454 kts 50°
2026-04-22 13:39 -6.76686 117.52804 34983 ft 454 kts 50°
2026-04-22 13:39 -6.72545 117.57720 34983 ft 454 kts 50°
2026-04-22 13:40 -6.68350 117.62575 34982 ft 454 kts 46°
2026-04-22 13:40 -6.63769 117.67032 34982 ft 454 kts 43°
2026-04-22 13:41 -6.59078 117.71387 34983 ft 454 kts 43°
2026-04-22 13:41 -6.54397 117.75718 34983 ft 454 kts 42°
2026-04-22 13:42 -6.49670 117.80089 34983 ft 454 kts 42°
2026-04-22 13:42 -6.44978 117.84425 34983 ft 454 kts 42°
2026-04-22 13:43 -6.40278 117.88767 34983 ft 454 kts 42°
2026-04-22 13:43 -6.35574 117.93112 34983 ft 454 kts 42°
2026-04-22 13:44 -6.30890 117.97438 34983 ft 454 kts 42°
2026-04-22 13:44 -6.26208 118.01761 34648 ft 454 kts 42°
2026-04-22 13:45 -6.23856 118.03931 34094 ft 452 kts 42°
2026-04-22 13:45 -6.21504 118.06102 33449 ft 452 kts 42°
2026-04-22 13:45 -6.19159 118.08266 32768 ft 452 kts 42°
2026-04-22 13:45 -6.16818 118.10426 32065 ft 453 kts 42°
2026-04-22 13:46 -6.14434 118.12624 31333 ft 454 kts 42°
2026-04-22 13:46 -6.12097 118.14780 30603 ft 455 kts 42°
2026-04-22 13:46 -6.09721 118.16972 29852 ft 456 kts 42°
2026-04-22 13:46 -6.07346 118.19162 29081 ft 457 kts 42°
2026-04-22 13:47 -6.04966 118.21356 28487 ft 453 kts 42°
2026-04-22 13:47 -6.02619 118.23520 28007 ft 447 kts 42°
2026-04-22 13:47 -6.00287 118.25670 27514 ft 442 kts 42°
2026-04-22 13:47 -5.98041 118.27739 27026 ft 438 kts 42°
2026-04-22 13:48 -5.95768 118.29833 26528 ft 433 kts 42°
2026-04-22 13:48 -5.93539 118.31886 26035 ft 429 kts 42°
2026-04-22 13:48 -5.91355 118.33897 25546 ft 425 kts 42°
2026-04-22 13:48 -5.89168 118.35910 25057 ft 421 kts 42°
2026-04-22 13:49 -5.86995 118.37898 24567 ft 417 kts 42°
2026-04-22 13:49 -5.84807 118.39902 24073 ft 413 kts 42°
2026-04-22 13:49 -5.82700 118.41836 23592 ft 410 kts 42°
2026-04-22 13:49 -5.80547 118.43817 23100 ft 406 kts 42°
2026-04-22 13:50 -5.79151 118.45104 22775 ft 404 kts 43°
2026-04-22 13:50 -5.76855 118.47223 22239 ft 401 kts 43°
2026-04-22 13:50 -5.74804 118.49119 21761 ft 398 kts 43°
2026-04-22 13:50 -5.72743 118.51023 21283 ft 396 kts 43°
2026-04-22 13:51 -5.70730 118.52882 20814 ft 393 kts 43°
2026-04-22 13:51 -5.68637 118.54816 20327 ft 391 kts 43°
2026-04-22 13:51 -5.66606 118.56692 19854 ft 389 kts 43°
2026-04-22 13:51 -5.64597 118.58548 19385 ft 388 kts 43°
2026-04-22 13:52 -5.62566 118.60423 18909 ft 386 kts 43°
2026-04-22 13:52 -5.60587 118.62251 18444 ft 384 kts 43°
2026-04-22 13:52 -5.58582 118.64101 17971 ft 382 kts 43°
2026-04-22 13:52 -5.56607 118.65926 17503 ft 380 kts 43°
2026-04-22 13:53 -5.54661 118.67737 17040 ft 378 kts 43°
2026-04-22 13:53 -5.52706 118.69553 16574 ft 376 kts 43°
2026-04-22 13:53 -5.50752 118.71365 16106 ft 374 kts 43°
2026-04-22 13:53 -5.48829 118.73143 15645 ft 372 kts 43°
2026-04-22 13:54 -5.46894 118.74930 15192 ft 370 kts 43°
2026-04-22 13:54 -5.44975 118.76700 15000 ft 365 kts 42°
2026-04-22 13:54 -5.43050 118.78476 14996 ft 366 kts 42°
2026-04-22 13:54 -5.41145 118.80232 14993 ft 366 kts 42°
2026-04-22 13:55 -5.39241 118.81987 14989 ft 361 kts 42°
2026-04-22 13:55 -5.37414 118.83671 14965 ft 346 kts 42°
2026-04-22 13:55 -5.35625 118.85319 14685 ft 340 kts 42°
2026-04-22 13:55 -5.33875 118.86932 14388 ft 334 kts 42°
2026-04-22 13:56 -5.32141 118.88531 14104 ft 328 kts 42°
2026-04-22 13:56 -5.30496 118.90076 13619 ft 314 kts 47°
2026-04-22 13:56 -5.29421 118.91971 13169 ft 306 kts 78°
2026-04-22 13:56 -5.29260 118.94114 13085 ft 302 kts 91°
2026-04-22 13:57 -5.29324 118.96275 13079 ft 302 kts 92°
2026-04-22 13:57 -5.29396 118.98414 13069 ft 301 kts 91°
2026-04-22 13:57 -5.29443 119.00504 12742 ft 292 kts 91°
2026-04-22 13:57 -5.29468 119.02544 12196 ft 285 kts 90°
2026-04-22 13:58 -5.29477 119.04505 11732 ft 277 kts 90°
2026-04-22 13:58 -5.29479 119.06433 11261 ft 269 kts 90°
2026-04-22 13:58 -5.29477 119.08309 10821 ft 261 kts 90°
2026-04-22 13:58 -5.29472 119.10146 10335 ft 256 kts 90°
2026-04-22 13:59 -5.29465 119.11938 9853 ft 252 kts 90°
2026-04-22 13:59 -5.29459 119.13718 9341 ft 249 kts 90°
2026-04-22 13:59 -5.29452 119.15453 8842 ft 246 kts 90°
2026-04-22 13:59 -5.29445 119.17175 8441 ft 244 kts 90°
2026-04-22 14:00 -5.29437 119.18898 8096 ft 243 kts 90°
2026-04-22 14:00 -5.29430 119.20582 7752 ft 235 kts 90°
2026-04-22 14:00 -5.29423 119.22222 7402 ft 228 kts 90°
2026-04-22 14:00 -5.29416 119.23791 7103 ft 222 kts 90°
2026-04-22 14:01 -5.29409 119.25320 6951 ft 222 kts 90°
2026-04-22 14:01 -5.29402 119.26904 6597 ft 228 kts 90°
2026-04-22 14:01 -5.29395 119.28428 6242 ft 233 kts 90°
2026-04-22 14:01 -5.29388 119.30079 5867 ft 238 kts 90°
2026-04-22 14:02 -5.29381 119.31773 5487 ft 242 kts 90°
2026-04-22 14:02 -5.29373 119.33483 5112 ft 246 kts 90°
2026-04-22 14:02 -5.29366 119.35197 4857 ft 245 kts 90°
2026-04-22 14:02 -5.29358 119.36933 4576 ft 245 kts 90°
2026-04-22 14:03 -5.29351 119.38645 4310 ft 244 kts 90°
2026-04-22 14:03 -5.29343 119.40337 4104 ft 236 kts 90°
2026-04-22 14:03 -5.29320 119.41939 4078 ft 216 kts 84°
2026-04-22 14:03 -5.28747 119.43292 4042 ft 206 kts 42°
2026-04-22 14:04 -5.27560 119.44080 4045 ft 197 kts 27°
2026-04-22 14:04 -5.26353 119.44670 3915 ft 188 kts 26°
2026-04-22 14:04 -5.25185 119.45255 3655 ft 186 kts 27°
2026-04-22 14:04 -5.24045 119.45864 3399 ft 184 kts 28°
2026-04-22 14:05 -5.22932 119.46487 3148 ft 182 kts 29°
2026-04-22 14:05 -5.21850 119.47108 2903 ft 180 kts 30°
2026-04-22 14:05 -5.19814 119.48289 2467 ft 156 kts 30°
2026-04-22 14:06 -5.18908 119.48814 2240 ft 145 kts 30°
2026-04-22 14:06 -5.18050 119.49312 2045 ft 142 kts 30°
2026-04-22 14:06 -5.17194 119.49807 1854 ft 142 kts 30°
2026-04-22 14:06 -5.16343 119.50299 1665 ft 142 kts 30°
2026-04-22 14:07 -5.15495 119.50789 1477 ft 141 kts 30°
2026-04-22 14:07 -5.14645 119.51279 1288 ft 141 kts 30°
2026-04-22 14:07 -5.13804 119.51765 1102 ft 140 kts 30°
2026-04-22 14:07 -5.12955 119.52255 915 ft 140 kts 30°
2026-04-22 14:08 -5.12114 119.52740 729 ft 140 kts 30°
2026-04-22 14:08 -5.11272 119.53226 543 ft 139 kts 30°
2026-04-22 14:08 -5.10436 119.53707 359 ft 139 kts 30°
2026-04-22 14:08 -5.09593 119.54192 173 ft 139 kts 30°
2026-04-22 14:09 -5.08754 119.54674 52 ft 131 kts 30°
2026-04-22 14:09 -5.08098 119.55054 52 ft 84 kts 31°
2026-04-22 14:09 -5.07715 119.55277 52 ft 49 kts 30°
2026-04-22 14:09 -5.07525 119.55382 51 ft 10 kts 23°
2026-04-22 14:10 -5.07444 119.55409 52 ft 10 kts 15°
2026-04-22 14:10 -5.07364 119.55424 51 ft 12 kts
2026-04-22 14:10 -5.07275 119.55427 51 ft 13 kts
2026-04-22 14:10 -5.07229 119.55428 51 ft 5 kts 357°
2026-04-22 14:11 -5.07202 119.55402 51 ft 6 kts 280°
2026-04-22 14:11 -5.07223 119.55357 51 ft 8 kts 213°
2026-04-22 14:11 -5.07280 119.55324 51 ft 10 kts 210°
2026-04-22 14:11 -5.07347 119.55286 51 ft 11 kts 210°
2026-04-22 14:12 -5.07421 119.55243 51 ft 12 kts 210°
2026-04-22 14:12 -5.07465 119.55217 51 ft 7 kts 210°
2026-04-22 14:12 -5.07512 119.55190 51 ft 8 kts 210°
2026-04-22 14:12 -5.07570 119.55156 51 ft 10 kts 210°
2026-04-22 14:13 -5.07617 119.55123 51 ft 7 kts 239°
2026-04-22 14:13 -5.07611 119.55070 51 ft 6 kts 299°
2026-04-22 14:13 -5.07590 119.55032 51 ft 6 kts 296°
2026-04-22 14:13 -5.07579 119.54985 51 ft 7 kts 258°
2026-04-22 14:14 -5.07619 119.54944 51 ft 6 kts 210°
2026-04-22 14:14 -5.07644 119.54933 51 ft 3 kts 174°
2026-04-22 14:14 -5.07665 119.54955 51 ft 5 kts 121°
2026-04-22 14:14 -5.07680 119.54981 51 ft 4 kts 120°
2026-04-22 14:15 -5.07686 119.54992 51 ft 0 kts 120°
2026-04-22 14:15 -5.07687 119.54994 51 ft 0 kts 120°